This is the latest recevied weather packets stored in our database for station/object G0TRT-13. If no packets are shown the sender has not sent any weather packets the latest 10 day(s).
| Time | Temp. | Humidity | Pressure | Rain* | Wind** | Luminosity | Snow |
|---|---|---|---|---|---|---|---|
| 1777723308 | 19.44° C | 62% | 1015.4 hPa | 0 mm | - | - | - |
| 1777723001 | 19.44° C | 60% | 1015.5 hPa | 0 mm | - | - | - |
| 1777722700 | 19.44° C | 60% | 1015.7 hPa | 0 mm | - | - | - |
| 1777722400 | 18.89° C | 60% | 1015.5 hPa | 0 mm | - | - | - |
| 1777722098 | 18.89° C | 61% | 1015.7 hPa | 0 mm | - | - | - |
| 1777721796 | 18.33° C | 63% | 1015.7 hPa | 0 mm | - | - | - |
| 1777721494 | 18.33° C | 63% | 1015.8 hPa | 0 mm | - | - | - |
| 1777721191 | 18.33° C | 65% | 1015.7 hPa | 0 mm | - | - | - |
| 1777720892 | 18.33° C | 65% | 1015.8 hPa | 0 mm | - | - | - |
| 1777720591 | 17.78° C | 65% | 1016 hPa | 0 mm | - | - | - |
| 1777720294 | 17.78° C | 63% | 1016 hPa | 0 mm | - | - | - |
| 1777719991 | 17.78° C | 64% | 1016 hPa | 0 mm | - | - | - |
| 1777719691 | 17.78° C | 64% | 1016 hPa | 0 mm | - | - | - |
| 1777719391 | 17.78° C | 64% | 1016.1 hPa | 0 mm | - | - | - |
| 1777719092 | 17.78° C | 64% | 1016.3 hPa | 0 mm | - | - | - |
| 1777718791 | 17.78° C | 64% | 1016.3 hPa | 0 mm | - | - | - |
| 1777718491 | 18.33° C | 63% | 1016.4 hPa | 0 mm | - | - | - |
| 1777718191 | 18.33° C | 63% | 1016.6 hPa | 0 mm | - | - | - |
| 1777717890 | 18.33° C | 64% | 1016.7 hPa | 0 mm | - | - | - |
| 1777717595 | 17.78° C | 63% | 1016.7 hPa | 0 mm | - | - | - |
| 1777717294 | 17.78° C | 64% | 1016.7 hPa | 0 mm | - | - | - |
| 1777716988 | 17.78° C | 64% | 1016.8 hPa | 0 mm | - | - | - |
| 1777716677 | 17.78° C | 64% | 1016.7 hPa | 0 mm | - | - | - |
| 1777716371 | 18.33° C | 63% | 1016.8 hPa | 0 mm | - | - | - |
| 1777716065 | 17.78° C | 66% | 1016.8 hPa | 0 mm | - | - | - |
* Rain latest hour (hover to see other rain measurements)
** Current wind speed in m/s (hover to see current wind gust speed)